星链-32091 (STARLINK-32091 )

导读 | 星芒AI

STARLINK-32091 是 SpaceX 星链计划中的一颗低轨通信卫星,属于第 6 批次部署的星链卫星群。该卫星于 2023 年发射,运行在约 550 公里的近地轨道,旨在为全球用户提供高速互联网服务。作为星链网络的一部分,它通过与其他卫星协同工作,提升网络覆盖与连接稳定性,尤其服务于偏远地区。该卫星采用先进推进系统,具备自主变轨和避碰能力,有助于降低太空碎片风险。

基本信息
目录编号:
59684
目录名称:
STARLINK-32091
国际标识:
2024-086C
轨道中心:
EARTH
卫星名称:
星链-32091
卫星全名:
星链-32091 (STARLINK-32091 )
卫星状态:
在轨 (已飞行591 天)
发射日期:
2024-05-08 UTC
国别 :
美国 (US)
星等 :
--
轨道信息
数据来源 国际轨道数据
星历时间: 2025-12-20T03:38:59+0800
11小时前
查看轨道信息
半长轴: 6861.19km
偏心率: 0.0001219
轨道倾角: 43.002°
近地点辐角 255.677°
升交点赤经 143.465°
平近点角 104.394°
近地点: 482.216km
远地点: 483.89km
周期: 94.267分钟
每日圈数: 15.275788
详细信息
固有亮度:
5
最大亮度:
1.5
卫星平台:
Starlink v2.0 mini
覆盖范围:
全球
运营商:
太空探索技术公司
运营商所在国:
美国
制造商(研发单位):
太空探索技术公司
制造商所在国:
美国
使用方式:
暂无
卫星简介
星链(Starlink)计划是由太空探索技术公司(SpaceX)提出的一个巨型低轨卫星互联网星座项目,计划在2019年至2024年间在太空搭建由约1.2万颗卫星组成的“星链”网络,其中1584颗将部署在地球上空550千米处的近地轨道,并从2020年开始工作。该卫星仍在工作。
2D轨道图
3D轨道图
轨道高度分析图
轨道倾角分析图
轨道综合分析图
查看轨道综合分析图